Weather History for MMCZ - December, 2012

Change the Weather History Date:

Tuesday, December 11, 2012

  Actual Average Record
Temperature  
Mean Temperature 74 °F -  
Max Temperature 80 °F 82 °F 87 °F (1997)
Min Temperature 68 °F 71 °F 57 °F (2010)
Cooling Degree Days 9    
Growing Degree Days 24 (Base 50)    
Moisture  
Dew Point 71 °F    
Average Humidity 88    
Maximum Humidity 100    
Minimum Humidity 73    
Precipitation  
Precipitation 7.45 in - - ()
Sea Level Pressure  
Sea Level Pressure 29.92 in    
Wind  
Wind Speed 3 mph ()    
Max Wind Speed 10 mph    
Max Gust Speed -    
Visibility 7.2 miles    
Events      
Averages and records for this station are not official NWS values.
T = Trace of Precipitation, MM = Missing Value Source: Averaged Metar Reports

Daily Weather History Graph

Daily Weather History Graph

Search for Another Location

Airport or City:

Trip Planner

Search our weather history database for the weather conditions in past years. The results will help you decide how hot, cold, wet, or windy it might be!

Date:

Astronomy

Dec. 11, 2012 Rise Set
Actual Time 6:13 AM CST 5:08 PM CST
Civil Twilight 5:49 AM CST 5:32 PM CST
Nautical Twilight 5:22 AM CST 6:00 PM CST
Astronomical Twilight 4:55 AM CST 6:27 PM CST
Moon 4:15 AM CST (12/11) 3:42 PM CST (12/11)
Length of Visible Light 11h 42m
Length of Day
10h 54m
Waning Crescent, 4% of the Moon is Illuminated
Dec 11
Waning Crescent
Dec 13
New
Dec 19
First Quarter
Dec 28
Full
Jan 4
Last Quarter

Hourly Weather History & Observations

Time (CST) Temp. Heat Index Dew Point Humidity Pressure Visibility Wind Dir Wind Speed Gust Speed Precip Events Conditions
12:40 AM 69.8 °F - 69.8 °F 100% 29.91 in 7.0 mi Calm Calm - N/A   Partly Cloudy
1:51 AM 68.0 °F - 68.0 °F 100% 29.88 in 7.0 mi Calm Calm - N/A   Partly Cloudy
2:41 AM 68.0 °F - 68.0 °F 100% 29.91 in 7.0 mi Calm Calm - N/A   Partly Cloudy
3:45 AM 69.8 °F - 68.0 °F 94% 29.89 in 7.0 mi SE 3.5 mph - N/A   Partly Cloudy
4:44 AM 71.6 °F - 68.0 °F 88% 29.90 in 7.0 mi ESE 8.1 mph - N/A   Mostly Cloudy
5:40 AM 71.6 °F - 62.6 °F 73% 29.88 in 7.0 mi Calm Calm - N/A   Scattered Clouds
6:43 AM 71.6 °F - 64.4 °F 78% 29.92 in 7.0 mi Calm Calm - N/A   Scattered Clouds
7:49 AM 75.2 °F - 75.2 °F 100% 29.94 in 7.0 mi SE 4.6 mph - N/A   Scattered Clouds
8:45 AM 77.0 °F - 75.2 °F 94% 29.99 in 7.0 mi SE 4.6 mph - N/A   Scattered Clouds
9:45 AM 78.8 °F - 75.2 °F 89% 29.96 in 8.0 mi SSE 6.9 mph - N/A   Mostly Cloudy
10:50 AM 78.8 °F - 73.4 °F 83% 29.96 in 8.0 mi SSE 5.8 mph - N/A   Mostly Cloudy
11:44 AM 80.6 °F 84.6 °F 71.6 °F 74% 29.90 in 8.0 mi SE 8.1 mph - N/A   Mostly Cloudy
12:51 PM 80.6 °F 85.4 °F 73.4 °F 79% 29.89 in 8.0 mi SSE 10.4 mph - N/A   Mostly Cloudy
1:42 PM 80.6 °F 84.6 °F 71.6 °F 74% 29.89 in 8.0 mi SSE 8.1 mph - N/A   Mostly Cloudy
2:55 PM 78.8 °F - 71.6 °F 78% 29.91 in 7.0 mi SSE 6.9 mph - N/A   Mostly Cloudy
3:47 PM 77.0 °F - 73.4 °F 89% 29.89 in 7.0 mi SE 6.9 mph - N/A   Mostly Cloudy
4:40 PM 75.2 °F - 71.6 °F 89% 29.88 in 7.0 mi SE 6.9 mph - N/A   Mostly Cloudy
5:47 PM 75.2 °F - 71.6 °F 89% 29.86 in 7.0 mi SSE 3.5 mph - N/A   Mostly Cloudy
6:51 PM 73.4 °F - 71.6 °F 94% 29.92 in 7.0 mi SE 4.6 mph - N/A   Mostly Cloudy
7:48 PM 75.2 °F - 71.6 °F 89% 29.95 in 7.0 mi Calm Calm - N/A   Scattered Clouds
8:46 PM 73.4 °F - 71.6 °F 94% 29.99 in 7.0 mi ESE 3.5 mph - N/A   Scattered Clouds
9:47 PM 73.4 °F - 71.6 °F 94% 29.99 in 7.0 mi Calm Calm - N/A   Scattered Clouds
10:52 PM 73.4 °F - 71.6 °F 94% 29.98 in 7.0 mi SE 3.5 mph - N/A   Mostly Cloudy
11:51 PM 73.4 °F - 66.2 °F 78% 29.94 in 7.0 mi SE 3.5 mph - N/A   Mostly Cloudy